STARLINK-34233

Satellite information

Favourite Embed

Satellite Type and Status

PAYLOADIN ORBIT

Key statistics

Satellite STARLINK-34233 at a glance.

Uptime

199

Days in orbit

Revolutions

≈ 15.3

Per day

Orbit

LEO

Low Earth Orbit

Inclination

53.2

Latest

Satellite identification and parameters

Extended collection of information and parameters for STARLINK-34233.

Object identification

Identified? True

Debris? False

Object name: STARLINK-34233

International designator: 2025-113C

Object number (NORAD): 64172

Object ID (CCSDS): 64172

Country: UNITED STATES OF AMERICA (US)

Current information (Y/N): Y

RCS size: LARGE

Orbital parameters

Period: 94.106 minutes

Inclination: 53.1566 deg

SMA: 6853.399 km

Apoapsis: 477.085 km

Periapsis: 473.443 km

RAAN: 137.7335 deg

Eccentricy: 0.00026571

Argument of periapsis: 88.2259 deg

Mean anomaly: 271.9046 deg

Mean motion: 15.30184252 rev/day

Mean motion (dot): 0.00051402 rev/day2

B* drag term: 0.0017363955 1/REarth

Two-line elements (TLE)

Creation date: Dec. 12, 2025, 10:14 a.m.

Reference frame: TEME

Reference center: EARTH

Epoch: Dec. 12, 2025, 3:52 a.m. UTC

TLE line 0: 0 STARLINK-34233

TLE line 1: 1 64172U 25113C 25346.16167493 .00051402 00000-0 17364-2 0 9994

TLE line 2: 2 64172 53.1566 137.7335 0002657 88.2259 271.9046 15.30184252 31667

Live tracking on map

Real-time ground track for satellite STARLINK-34233.

In-orbit conjunctions

There are no conjunctions computed for STARLINK-34233, at the moment. Check back to stay up to date, as we update our databases every day.

Go to all conjunctions

Associated space launch

A batch of 27 satellites for the Starlink mega-constellation - SpaceX's project for space-based Internet communication system.

STARLINK-34233 was lifted into orbit during the mission ‘Falcon 9 Block 5 | Starlink Group 10-32’, on board a Falcon 9 space rocket.

The launch took place on May 28, 2025, 1:30 p.m. from Launch Complex 39A.

For more information about the launch, click the button.

Launch to space Falcon 9 Block 5 | Starlink Group 10-32
Falcon 9 Block 5 | Starlink Group 10-32

Agency: SpaceX

Status: Launch Successful

Launch date: May 28, 2025, 1:30 p.m. UTC

Rocket: Falcon 9

Launch pad: Launch Complex 39A

Location: Kennedy Space Center, FL, USA

...

Latest news about this satellite

News about space launch
Launch Roundup: Chinese asteroid mission, Electron, and Falcon 9 set to launch

This week, China will launch a near-Earth asteroid sample return mission amongst several other missions.… The post Launch Roundup: Chinese asteroid mission, Electron, and Falcon 9 set to launch appeared first on NASASpaceFlight.com.

News about space launch
Live coverage: SpaceX to launch 27 Starlink satellites on Falcon 9 launch from NASA’s Kennedy Space Center

The Starlink 10-32 mission will see a Falcon 9 rocket fly in a north-easterly trajectory after launching from Launch Complex 39A at NASA's Kennedy Space Center. SpaceX is targeting a liftoff at 9:30 a.m. EDT (1330 UTC).


Newsletter sign-up

Weekly statistics, charts and insights to help you stay on top of the space industry.